Theta_e
289 282 279 279 285 286 286 284 283 286 291 291 290 293 295 299 301 300 303 309 313 311 316 315 316 316 317 317 316 314 309 307 306 302 300 300 297 297 297 298 297 298 297 295
282 280 285 286 286 285 284 281 281 285 289 290 289 288 292 296 298 300 301 299 313 312 306 310 313 313 315 316 313 310 310 306 306 305 303 300 298 297 296 297 297 296 296 293
280 282 287 286 284 282 282 281 281 282 286 290 289 285 288 292 297 299 302 302 303 311 305 307 309 312 315 315 311 309 308 307 307 305 300 297 296 295 294 294 294 295 294 293
282 286 285 283 281 282 278 285 285 284 282 277 288 277 284 290 292 296 299 300 299 310 308 309 310 310 314 315 313 309 307 307 305 301 300 297 296 293 293 293 293 292 292 291
280 282 282 281 282 285 281 286 285 285 282 280 282 279 280 290 290 294 297 300 301 307 308 308 308 309 313 312 311 308 308 306 303 302 301 299 296 293 292 292 291 291 291 291
284 287 285 284 285 285 286 285 284 285 283 274 281 280 278 284 289 292 297 299 301 304 305 308 309 309 305 305 304 305 303 301 301 301 300 297 293 292 290 290 289 289 289 288
281 281 284 286 282 285 284 280 272 271 274 273 281 279 281 287 292 294 296 297 301 302 302 303 302 301 301 301 301 301 301 299 300 299 297 296 293 292 290 290 289 288 287 287
274 271 280 286 283 280 282 282 274 269 270 273 280 277 281 290 294 296 299 299 300 301 301 300 299 301 300 300 300 300 299 298 298 297 296 295 294 293 292 290 289 288 287 287
273 275 283 284 285 284 280 279 285 278 271 274 272 281 288 291 294 296 297 298 299 300 300 298 298 298 300 299 299 299 298 297 297 295 295 294 294 293 291 291 290 289 287 287
280 274 280 282 285 287 283 287 278 280 265 265 275 278 280 287 289 296 296 296 296 297 296 295 295 295 296 297 297 298 298 297 296 296 295 294 293 292 291 290 288 287 287 287
282 279 277 282 278 275 279 278 281 280 280 273 273 277 286 285 286 287 297 296 294 293 293 293 293 294 294 295 295 295 295 294 293 293 293 292 291 291 290 289 288 288 287 286
283 280 272 276 282 284 284 279 281 276 275 278 279 278 290 287 286 288 295 296 295 294 293 293 291 291 292 292 293 293 293 292 292 292 291 291 290 290 289 288 287 287 286 286
283 274 270 270 276 284 282 283 284 282 282 277 275 279 290 291 290 293 292 292 292 292 291 291 290 290 289 290 290 290 291 290 291 291 291 290 289 289 288 286 286 286 285 284
285 276 275 272 276 279 277 280 282 281 277 278 279 281 287 288 286 291 289 290 291 291 290 289 289 289 289 289 289 289 289 290 290 289 289 288 288 287 286 286 285 284 284 282
276 268 274 276 277 277 278 278 280 279 280 278 281 282 286 288 287 290 291 290 290 290 289 289 288 288 288 288 288 289 288 288 289 288 288 286 286 286 285 284 284 283 282 281
279 267 271 269 274 278 276 279 280 280 280 281 282 282 290 290 290 290 291 291 289 290 289 289 288 288 287 288 288 288 288 287 288 287 286 285 285 284 283 283 282 281 281 280
274 276 268 263 273 271 267 275 278 280 281 281 279 284 287 288 291 290 290 292 291 291 290 289 288 289 288 288 288 287 287 287 286 285 284 284 283 283 282 282 281 280 280 279
270 274 275 266 266 261 275 279 279 279 281 281 281 284 285 287 289 291 290 289 290 291 291 290 290 289 289 289 288 288 287 286 285 283 283 283 282 282 281 281 280 280 279 278
278 278 266 262 257 270 276 278 276 276 278 279 278 283 285 286 286 288 289 290 289 289 291 291 292 291 290 289 289 287 285 284 283 283 282 282 282 281 280 280 279 278 278 278
280 280 274 261 260 259 279 281 280 279 274 279 279 282 283 285 284 286 286 288 289 288 287 286 287 288 288 288 287 285 284 284 282 282 282 282 281 282 281 280 279 278 278 279
263 269 269 269 268 267 279 281 281 271 276 280 279 282 283 284 285 285 286 288 289 287 285 285 285 284 284 284 285 284 282 282 283 282 281 281 281 281 280 278 275 275 275 276
266 265 264 268 270 268 281 281 278 283 282 279 278 282 283 283 284 284 286 286 286 285 284 283 282 282 282 283 284 282 282 282 281 281 280 280 278 279 277 275 273 272 272 271
265 271 268 272 274 281 280 282 285 283 282 280 279 280 281 283 283 283 284 285 285 283 283 282 282 281 280 281 283 281 281 281 280 279 279 277 274 275 276 274 272 270 269 271
270 273 271 272 274 276 278 279 281 281 281 281 280 280 280 281 283 282 283 284 283 283 282 281 279 280 279 278 279 279 280 279 278 278 276 274 274 273 272 274 274 274 273 272
272 273 270 270 275 276 276 277 279 280 281 281 281 280 280 281 283 282 282 283 283 282 281 280 279 279 277 276 275 273 277 278 277 275 274 275 275 275 274 274 274 275 274 275
273 272 271 270 275 275 276 277 278 279 280 280 280 279 279 280 282 281 281 281 281 281 279 276 276 275 274 275 276 273 274 277 277 276 276 276 275 273 273 271 271 278 280 281
Wind_Speed
4 2 9 4 9 11 12 18 24 17 15 13 18 21 13 13 16 11 6 13 19 21 18 12 16 16 15 15 14 16 17 15 13 10 9 6 5 4 5 4 6 6 6 6
4 9 10 5 7 10 13 17 19 15 15 14 18 25 18 16 16 15 14 8 21 20 13 13 15 15 16 16 14 13 16 17 12 11 7 5 7 4 5 4 5 5 7 5
5 10 4 5 7 11 14 13 16 18 15 19 19 26 19 17 21 15 16 11 15 25 22 19 17 18 16 17 16 16 15 16 13 12 11 9 8 6 4 5 4 4 6 5
8 4 2 6 10 7 15 12 18 17 10 14 10 17 7 6 19 21 19 14 4 19 24 23 25 16 17 17 16 16 16 14 11 14 12 18 10 9 4 6 6 5 5 6
9 7 8 13 13 7 11 10 14 17 14 11 16 9 6 5 10 20 22 20 7 12 20 23 23 23 20 15 16 15 16 14 14 13 12 10 11 9 8 7 9 9 7 6
14 4 6 10 13 10 11 12 14 16 9 11 24 15 8 10 17 15 16 15 11 6 12 19 22 19 13 13 13 15 15 14 13 13 13 11 14 15 12 9 7 5 5 4
7 5 5 5 5 3 1 5 6 4 5 8 4 9 17 12 17 19 21 17 16 12 10 8 13 18 14 16 14 13 15 13 14 14 13 14 16 12 16 11 9 8 4 3
6 10 4 1 3 5 9 4 6 7 5 10 9 6 8 9 8 13 16 19 16 15 13 12 11 16 19 16 15 15 16 13 13 14 13 15 16 10 11 8 10 8 6 5
5 8 7 13 15 4 4 4 4 9 6 7 4 7 9 7 5 5 11 13 17 16 17 19 14 7 9 18 17 17 17 15 12 13 12 12 10 13 13 9 8 9 6 5
3 15 6 6 5 6 7 3 6 5 4 6 5 6 5 10 10 6 7 11 9 9 9 12 13 9 9 11 15 14 16 18 15 14 10 9 9 10 13 11 10 10 7 7
7 6 9 9 3 4 4 3 3 3 7 3 7 4 2 9 12 17 10 13 13 13 11 10 10 11 5 11 13 16 14 17 15 14 10 11 7 7 9 10 8 10 8 7
2 5 6 14 12 5 1 4 2 3 8 4 3 7 7 10 12 15 3 5 10 11 13 14 14 15 8 10 11 15 14 14 12 16 14 12 10 5 8 9 8 8 8 6
4 4 7 11 6 3 4 2 5 7 10 5 2 6 13 17 14 6 3 7 9 10 12 12 13 13 12 8 9 13 13 16 12 15 14 12 9 7 7 8 8 8 8 6
3 4 7 11 12 10 15 14 7 7 8 6 5 10 11 20 15 8 4 7 8 9 11 11 11 10 13 12 8 10 12 13 13 14 13 11 8 7 7 8 7 7 6 6
4 5 4 11 18 14 16 19 12 11 13 7 7 13 11 13 12 11 5 7 3 7 9 10 11 11 12 13 11 11 9 11 11 13 11 11 9 8 7 7 7 6 6 5
1 6 4 9 5 7 15 14 9 14 13 12 9 13 5 6 3 9 6 2 4 8 10 10 10 12 12 13 12 11 10 10 10 9 9 10 10 9 7 7 7 6 6 5
2 3 4 9 6 12 5 4 3 6 5 5 4 4 8 4 8 7 7 3 3 6 9 11 11 11 12 13 13 13 12 10 9 9 8 9 9 9 8 7 6 6 6 5
3 2 2 7 8 4 7 4 6 8 7 8 7 11 5 7 3 3 7 0 5 7 9 11 11 10 11 12 11 12 11 10 9 9 10 9 9 8 7 7 7 6 5 6
7 3 4 1 2 9 4 3 1 2 4 4 6 10 7 4 1 1 7 3 2 6 9 10 9 12 12 14 13 13 11 9 9 9 9 10 9 8 8 8 7 5 5 4
6 8 1 3 1 5 6 2 3 2 5 4 4 8 8 7 2 3 7 7 3 6 7 10 10 11 12 11 13 13 11 11 11 10 10 8 8 8 9 8 7 4 4 5
1 1 7 6 5 11 12 4 2 6 3 2 5 6 7 3 1 4 6 5 3 3 6 8 10 9 9 12 13 13 12 14 11 7 7 7 7 9 8 6 4 4 3 3
7 7 5 2 4 9 4 1 2 4 3 0 3 5 5 6 6 3 6 6 4 5 5 6 7 7 7 9 11 11 13 7 8 8 8 7 7 5 4 6 4 3 4 2
4 8 5 10 9 5 1 4 3 2 3 2 1 2 6 6 6 6 3 5 4 2 4 3 6 7 6 8 9 9 7 11 9 8 8 6 4 4 5 5 4 1 3 4
7 5 5 3 5 8 7 6 7 5 10 4 2 1 3 5 6 6 6 3 2 1 3 3 6 7 7 5 5 4 7 7 9 8 7 6 6 5 4 2 3 4 4 4
6 6 5 7 14 12 7 8 8 6 5 5 4 2 0 3 5 4 4 2 2 1 2 4 4 4 4 5 4 3 6 8 7 5 5 6 5 6 5 5 6 6 5 5
8 9 7 9 9 3 6 3 4 5 4 4 3 1 1 2 3 1 5 5 3 3 2 3 3 3 4 5 6 5 5 7 7 6 5 5 5 5 3 2 2 9 13 11
Wind_Direction
338 55 237 232 232 257 281 280 279 278 282 282 271 272 276 268 254 252 245 268 212 201 194 185 186 165 171 150 148 150 142 144 142 139 135 127 131 120 102 95 96 106 105 101
6 243 258 239 255 252 259 265 273 283 259 252 260 274 277 274 255 249 241 323 233 199 174 174 176 166 181 157 153 151 153 152 158 153 144 125 140 114 107 102 90 92 102 101
212 253 325 284 268 267 259 256 266 264 286 269 268 264 261 257 241 237 225 224 299 193 179 174 172 171 173 166 162 157 160 161 159 146 122 112 103 108 115 116 101 85 90 92
257 280 319 293 276 258 274 249 251 260 276 275 201 273 241 237 240 237 231 207 302 241 188 177 168 173 176 171 164 160 161 165 157 151 147 157 158 156 145 130 116 99 81 83
262 285 285 278 256 174 256 274 255 254 260 283 251 252 260 172 244 241 230 230 201 222 202 186 174 175 177 161 160 160 158 158 158 158 158 156 144 123 118 113 110 102 88 80
251 251 240 238 276 224 253 283 283 269 246 264 268 216 245 226 221 230 223 216 194 176 234 199 180 162 160 144 147 151 152 150 151 145 142 139 135 132 129 120 115 102 92 96
304 249 262 211 283 317 152 313 286 276 227 246 307 229 241 250 228 207 195 190 162 170 177 230 186 159 163 150 149 144 149 151 148 142 135 136 133 142 125 131 125 122 115 125
326 317 320 23 239 280 292 198 269 299 304 304 296 251 258 266 278 223 193 197 178 176 180 179 224 170 162 153 152 149 145 134 138 135 143 142 141 130 125 159 138 134 137 131
314 258 283 282 289 201 279 232 199 277 219 265 236 282 299 224 261 213 184 187 197 195 182 172 161 225 179 154 155 150 139 133 131 128 134 128 136 138 129 133 117 117 120 126
272 289 264 297 310 259 205 299 318 269 304 278 254 265 257 318 345 274 182 178 180 163 176 146 141 146 161 146 133 138 137 133 128 126 129 116 140 128 126 134 144 118 133 141
260 233 286 327 265 239 326 312 268 285 257 293 317 299 295 287 306 300 209 191 171 160 157 144 130 118 135 128 128 130 127 122 124 116 111 112 122 120 125 121 118 133 145 148
271 286 281 273 286 285 240 218 246 278 299 284 248 280 335 319 288 284 272 129 153 151 156 143 127 115 142 125 129 121 125 119 137 117 118 113 103 116 114 122 142 141 139 149
341 287 307 328 348 34 318 229 266 274 258 245 303 300 358 321 331 299 191 136 119 123 126 125 127 125 118 108 118 112 129 119 121 118 116 117 131 140 152 140 142 148 143 139
278 262 231 276 292 308 287 286 295 303 281 320 271 310 329 334 344 335 42 63 93 127 129 128 123 135 123 111 112 120 109 118 128 121 123 130 144 149 157 148 144 143 138 147
141 260 244 266 273 278 269 276 279 268 271 289 322 317 314 323 331 325 26 85 121 121 126 135 135 127 120 120 112 101 118 120 127 119 142 144 145 154 150 140 148 136 148 167
227 278 339 290 263 249 294 276 249 261 275 260 267 286 241 225 278 349 7 166 186 146 140 126 127 127 124 126 121 130 128 129 127 138 160 148 147 150 156 152 147 147 166 171
254 294 349 267 336 317 0 251 258 280 265 288 289 274 338 304 32 342 306 158 190 156 148 140 148 145 142 137 142 138 138 134 149 148 149 151 153 157 161 152 148 169 181 172
228 293 257 277 342 1 246 294 230 242 270 286 289 284 301 288 319 329 279 82 152 147 149 149 144 140 135 134 141 143 138 150 158 154 155 154 159 160 151 155 178 180 175 186
203 250 292 299 233 287 305 284 339 31 290 297 298 311 313 331 281 324 339 6 94 144 151 158 157 150 149 152 152 143 146 155 161 165 165 169 165 156 157 182 191 181 169 184
195 224 229 27 338 250 258 82 152 135 331 310 311 315 322 336 30 298 353 351 8 120 134 137 142 144 144 149 149 148 160 167 182 179 175 162 160 169 180 189 184 172 178 197
180 249 227 233 265 284 256 286 79 70 269 17 312 312 314 322 328 286 343 25 25 67 121 123 135 149 151 149 153 159 165 189 181 143 143 153 166 182 186 174 153 159 176 190
177 161 207 190 230 272 184 329 175 224 297 148 311 310 314 311 319 31 1 22 48 105 119 134 132 143 141 150 156 159 182 143 131 147 155 166 180 182 154 158 168 167 152 179
279 196 189 189 223 250 209 253 272 258 236 277 190 325 310 315 322 341 26 12 37 96 140 132 140 141 150 157 158 166 157 161 159 146 169 171 147 155 166 171 165 125 166 197
240 188 214 23 269 248 261 259 251 262 265 250 232 297 333 300 318 318 354 20 47 66 144 129 134 153 163 170 162 156 147 132 147 165 167 156 163 178 183 133 162 186 193 196
208 142 198 263 283 278 280 256 260 279 277 248 255 224 225 293 315 320 304 309 70 205 143 141 164 154 162 134 139 143 149 148 158 144 156 178 180 181 183 201 191 204 217 184
185 198 175 220 233 197 267 307 322 311 317 256 230 243 272 212 223 222 298 311 349 238 146 123 150 142 170 167 170 169 154 157 153 166 175 187 181 190 188 175 272 245 238 233